This is the latest recevied weather packets stored in our database for station/object KD0RII. If no packets are shown the sender has not sent any weather packets the latest 10 day(s).
| Time | Temp. | Humidity | Pressure | Rain* | Wind** | Luminosity | Snow |
|---|---|---|---|---|---|---|---|
| 1777409740 | 15.56° C | 67% | 1015.3 hPa | 0 mm | - | 496 W/m² | - |
| 1777409436 | 15.56° C | 68% | 1015.4 hPa | 0 mm | - | 373 W/m² | - |
| 1777409132 | 15° C | 70% | 1015.4 hPa | 0 mm | - | 350 W/m² | - |
| 1777408828 | 14.44° C | 71% | 1015.7 hPa | 0 mm | - | 284 W/m² | - |
| 1777408525 | 14.44° C | 70% | 1015.6 hPa | 0 mm | - | 273 W/m² | - |
| 1777408224 | 14.44° C | 71% | 1015.5 hPa | 0 mm | - | 333 W/m² | - |
| 1777407920 | 15° C | 71% | 1015.8 hPa | 0 mm | - | 266 W/m² | - |
| 1777407618 | 14.44° C | 71% | 1015.9 hPa | 0 mm | - | 218 W/m² | - |
| 1777407317 | 13.89° C | 72% | 1015.9 hPa | 0 mm | - | 210 W/m² | - |
| 1777407012 | 14.44° C | 71% | 1016.2 hPa | 0 mm | - | 232 W/m² | - |
| 1777406708 | 14.44° C | 70% | 1016.3 hPa | 0 mm | - | 221 W/m² | - |
| 1777406403 | 14.44° C | 71% | 1016.3 hPa | 0 mm | - | 145 W/m² | - |
| 1777406102 | 14.44° C | 71% | 1016.5 hPa | 0 mm | - | 190 W/m² | - |
| 1777405798 | 15° C | 71% | 1016.5 hPa | 0 mm | - | 188 W/m² | - |
| 1777405495 | 14.44° C | 71% | 1016.3 hPa | 0 mm | - | 178 W/m² | - |
| 1777405193 | 14.44° C | 72% | 1016.4 hPa | 0 mm | - | 225 W/m² | - |
| 1777404890 | 14.44° C | 71% | 1016.3 hPa | 0 mm | - | 213 W/m² | - |
| 1777404587 | 13.89° C | 72% | 1016 hPa | 0 mm | - | 260 W/m² | - |
| 1777404284 | 14.44° C | 69% | 1015.8 hPa | 0 mm | - | 208 W/m² | - |
| 1777403979 | 14.44° C | 72% | 1015.7 hPa | 0 mm | - | 286 W/m² | - |
| 1777403674 | 14.44° C | 72% | 1015.8 hPa | 0 mm | - | 225 W/m² | - |
| 1777403373 | 14.44° C | 71% | 1015.6 hPa | 0 mm | - | 275 W/m² | - |
| 1777403068 | 15° C | 69% | 1015.9 hPa | 0 mm | - | 309 W/m² | - |
| 1777402764 | 14.44° C | 70% | 1015.6 hPa | 0 mm | - | 295 W/m² | - |
| 1777402460 | 14.44° C | 71% | 1015.4 hPa | 0 mm | - | 333 W/m² | - |
* Rain latest hour (hover to see other rain measurements)
** Current wind speed in m/s (hover to see current wind gust speed)